User: anonymous   Login
Location: Peebles
(55.6412°N, 3.1714°W)
Time: 00:09:06
(UTC+00:00)
Language:

Cosmos 1758 - Orbit

View from above orbital plane
View from above orbital plane
View from above satellite
View from above satellite

Ground track
Ground track

The orbit data is extracted from the following two-line orbital elements,

1 16791U 86046A   21331.48675312  .00000326  00000-0  20611-4 0  9999
2 16791  82.4706 248.2086 0014978 322.6950  37.3235 15.05515264929691
Epoch (UTC): 27 November 2021 11:40:55
Eccentricity: 0.0014978
inclination: 82.4706°
perigee height: 539 km
apogee height: 560 km
right ascension of ascending node: 248.2086°
argument of perigee: 322.6950°
revolutions per day: 15.05515264
mean anomaly at epoch: 37.3235°
orbit number at epoch: 92969

The dashed part of the orbit path shows where the satellite is in the earth's shadow,  

DLR